Theta_e
301 302 303 305 311 315 310 316 320 322 316 320 323 324 322 320 321 323 320 321 320 320 320 320 319 321 321 321 322 321 322 322 323 323 322 321 322 323 323 322 321 321 324 321
300 301 304 306 310 314 311 317 319 323 321 325 329 323 321 321 322 323 322 320 321 320 320 321 320 319 321 321 323 321 323 321 323 323 323 321 320 320 321 320 321 321 326 320
299 300 304 305 309 314 313 318 323 323 322 321 324 323 321 321 321 322 321 320 322 323 323 323 323 323 321 320 321 316 318 321 322 324 323 322 322 321 320 320 321 319 319 318
300 300 303 307 309 312 314 318 320 320 325 326 325 322 321 321 322 322 322 323 323 323 323 324 324 324 321 320 318 319 322 323 322 322 321 320 320 319 320 320 319 320 319 317
300 301 303 305 309 310 313 319 320 319 321 321 322 320 321 320 322 323 323 322 321 322 323 323 323 324 323 323 322 323 321 322 322 323 321 320 319 319 318 319 318 318 318 318
300 301 302 306 310 310 313 319 319 320 322 325 322 324 321 320 323 324 323 322 323 324 324 324 323 323 322 323 324 324 323 322 321 319 317 318 320 320 319 319 318 319 320 319
301 301 302 304 311 311 315 319 319 321 325 324 321 320 320 320 323 324 323 323 324 323 320 320 320 320 320 320 321 322 323 322 321 321 316 323 316 316 316 317 317 317 317 317
302 301 303 305 311 311 316 320 319 320 325 320 319 318 320 319 322 324 323 322 322 320 321 323 322 322 322 319 317 317 318 320 320 325 318 317 316 314 315 315 316 316 315 315
301 302 303 308 310 312 316 322 322 319 325 321 317 318 317 323 325 324 319 319 319 319 324 326 324 324 322 323 322 316 315 317 319 318 325 325 318 315 314 315 316 314 314 314
303 304 309 310 310 312 315 324 318 318 317 316 316 318 319 319 323 325 320 319 319 318 327 329 328 324 321 322 322 320 321 321 323 321 324 321 317 314 314 317 318 315 314 314
306 309 310 310 312 313 314 323 317 318 320 319 319 317 317 318 321 327 321 321 321 322 326 331 327 328 322 321 319 321 321 324 322 323 321 322 313 315 316 318 314 314 315 314
310 308 309 311 312 313 317 323 317 321 321 322 322 320 319 319 321 322 320 322 322 322 325 328 328 323 318 324 322 318 321 321 322 320 320 316 314 314 314 314 314 314 314 314
308 310 311 312 313 313 319 322 319 318 323 321 320 320 317 319 321 322 322 324 323 322 323 323 326 323 324 323 323 322 318 316 318 317 315 315 314 314 313 314 314 314 314 314
310 311 312 313 313 315 319 321 320 321 322 323 322 319 319 317 317 319 323 323 321 321 322 324 317 324 320 325 322 320 318 316 317 317 315 314 314 315 314 314 315 315 315 315
311 312 313 313 313 315 317 318 318 319 320 321 321 319 318 318 318 318 317 319 319 320 322 319 326 319 320 317 318 320 316 317 319 318 315 316 316 315 315 315 314 312 312 312
313 314 314 313 314 316 316 317 316 316 318 322 324 318 318 319 319 319 319 320 321 321 323 322 318 315 320 321 321 316 314 312 312 315 314 315 315 311 309 308 307 306 306 305
316 315 315 313 314 315 319 316 316 316 316 320 322 320 317 317 318 317 319 320 320 322 320 318 319 316 318 317 322 314 310 310 311 310 312 316 310 308 307 306 303 300 299 299
316 315 314 313 313 315 315 315 316 316 315 319 320 319 319 317 319 317 315 319 320 316 313 313 316 314 317 321 311 309 307 310 308 307 308 308 307 306 303 301 299 298 298 297
315 315 314 313 315 316 313 315 315 313 314 319 314 318 318 314 312 312 314 316 317 313 315 316 317 312 317 307 306 306 305 307 307 306 306 304 302 299 299 298 298 298 297 297
315 315 315 315 314 313 313 313 313 314 314 312 310 313 317 314 312 311 312 311 314 315 313 312 316 307 301 301 301 302 303 305 304 302 300 299 298 298 299 299 298 298 298 297
310 312 312 313 313 312 311 311 315 316 315 308 308 313 313 310 314 310 309 312 312 315 315 314 314 309 301 299 300 300 300 301 302 301 299 299 299 299 298 298 297 296 294 292
311 312 311 311 311 311 312 310 310 312 312 306 308 308 308 307 310 310 309 310 310 317 311 316 313 302 299 298 299 300 300 300 299 299 299 298 298 297 296 294 293 291 291 290
310 310 310 312 308 315 310 314 310 308 305 304 306 307 307 307 308 307 310 314 315 310 313 312 306 299 298 298 299 299 298 298 297 296 295 294 293 291 291 291 291 291 291 291
309 308 309 309 309 305 304 306 305 300 302 305 306 305 307 306 307 309 310 305 308 311 313 312 301 298 297 299 298 297 295 294 295 295 294 292 291 291 291 291 291 291 291 291
303 304 305 302 298 298 298 299 299 300 302 304 306 306 308 307 309 309 307 307 312 311 310 304 298 297 297 298 298 296 294 295 296 295 291 291 291 292 291 291 291 291 289 287
299 299 301 299 300 300 299 299 299 300 302 304 305 307 310 307 308 307 312 312 312 306 303 298 297 297 296 297 297 296 296 296 295 294 292 292 292 292 291 290 288 287 287 286
299 299 298 299 298 297 297 298 298 300 301 303 304 310 307 304 308 307 307 308 304 300 298 297 297 296 297 296 296 295 294 294 294 293 292 291 291 290 288 287 286 285 284 284
Wind_Speed
39 37 40 38 42 36 35 28 12 24 32 16 18 16 22 15 12 10 9 6 9 12 11 12 12 13 8 10 8 9 4 4 6 12 5 5 9 8 10 6 6 3 4 5
38 39 40 38 43 45 38 30 20 22 30 14 14 19 22 15 13 12 12 11 8 9 10 10 11 10 6 4 7 4 6 7 8 6 7 8 8 10 8 5 2 9 3 3
40 39 40 38 42 47 42 26 11 12 23 33 22 24 22 18 15 10 16 11 9 10 8 6 9 8 4 5 4 0 0 12 10 9 5 2 7 12 11 11 7 9 11 11
41 40 44 35 43 49 41 30 16 20 17 22 21 23 18 22 14 11 15 11 15 13 9 9 7 10 6 5 5 6 4 9 13 14 5 6 8 8 12 17 16 12 12 14
40 39 43 36 43 51 36 19 22 29 28 35 20 21 23 24 19 15 16 13 16 13 9 10 9 12 9 7 9 7 5 6 3 6 7 7 10 12 14 14 16 17 18 17
36 38 45 39 43 56 31 25 23 31 27 24 18 18 23 23 16 3 9 17 11 11 4 6 8 8 4 4 7 10 5 4 3 4 3 5 6 17 18 17 16 12 15 16
33 42 49 38 53 62 36 22 17 20 16 18 20 22 23 21 17 11 5 10 10 7 16 17 15 13 10 7 5 3 5 7 1 0 1 1 2 2 4 6 12 14 13 14
34 38 46 44 58 62 36 19 18 12 4 20 24 23 21 19 11 12 14 5 5 22 11 4 4 2 2 2 2 3 4 4 2 2 6 9 12 5 1 2 5 8 7 9
32 47 39 49 58 63 37 16 13 21 11 14 29 21 24 13 11 7 5 10 16 8 3 2 5 5 6 5 6 2 3 1 4 3 3 4 4 4 2 1 5 7 9 10
42 36 32 47 52 61 40 6 16 17 14 23 21 18 16 20 15 7 8 10 6 3 3 2 3 4 2 5 5 4 2 1 6 5 3 6 3 3 2 4 3 9 10 11
37 33 46 49 51 55 35 4 19 16 9 12 10 16 21 19 20 8 14 8 3 4 3 3 3 1 4 2 2 6 6 7 3 3 3 5 7 7 2 5 8 10 11 12
38 45 45 48 54 48 24 6 21 16 10 8 9 14 14 14 16 16 20 5 14 10 5 1 2 2 1 1 3 3 4 5 2 6 2 4 6 5 5 6 8 10 12 14
38 41 43 44 54 46 18 9 19 17 8 9 8 7 11 18 17 15 8 7 9 9 5 6 3 3 4 4 5 3 4 3 3 1 2 3 5 7 5 6 9 12 14 15
37 38 41 46 51 41 16 5 17 12 9 5 4 5 4 11 15 16 11 12 15 15 9 4 3 3 6 4 2 4 3 7 5 5 10 7 6 4 5 12 13 12 12 12
33 37 41 48 50 38 8 14 16 16 6 4 9 8 4 4 9 10 11 12 15 10 5 2 2 5 4 2 1 3 5 2 3 3 6 5 9 13 9 9 8 8 8 8
35 38 40 48 49 31 12 6 9 12 6 6 4 4 5 9 12 12 12 11 8 6 5 3 5 3 4 4 4 5 4 3 2 4 9 8 5 6 9 9 10 10 11 11
35 36 40 49 44 28 9 5 11 20 10 4 5 5 4 7 7 6 7 6 6 3 4 3 4 4 6 2 4 6 2 3 1 6 8 5 8 6 8 10 11 12 13 13
34 36 40 45 44 21 6 11 11 14 9 3 4 3 5 2 3 4 3 3 4 6 4 3 3 4 2 3 6 3 5 4 7 6 6 6 7 9 10 10 12 16 20 19
36 38 37 39 24 8 9 11 17 7 3 1 3 5 4 4 4 3 3 3 3 2 2 3 4 2 3 4 4 4 6 4 2 7 10 11 12 13 13 14 16 17 13 11
38 37 23 12 11 23 21 12 11 4 1 3 3 3 4 2 3 3 3 3 3 2 2 4 1 2 5 4 4 4 3 4 9 9 12 13 14 15 14 13 11 10 8 6
18 12 5 19 21 9 4 3 1 2 2 5 4 4 5 3 2 3 2 2 2 3 3 3 3 3 5 6 6 5 6 9 11 14 16 15 15 12 9 7 6 6 6 6
13 21 25 19 5 3 5 3 2 2 2 2 3 4 5 4 4 4 3 3 2 2 7 3 3 3 12 11 11 13 15 17 17 16 15 12 9 7 6 5 5 6 6 7
19 9 5 3 4 4 3 5 1 3 2 2 4 3 3 4 4 5 2 3 2 5 1 2 2 13 15 16 17 16 15 13 12 11 9 8 7 6 5 5 6 6 6 7
7 6 5 4 3 4 3 3 3 3 4 9 9 5 3 3 3 0 3 1 1 3 4 3 4 19 20 16 16 15 13 13 10 9 8 6 5 5 5 5 5 5 7 10
7 7 4 5 3 6 3 5 5 5 5 6 6 5 3 2 3 2 3 3 3 3 1 2 15 23 20 17 15 13 12 10 7 6 6 6 5 5 4 3 5 7 9 12
5 7 4 3 4 5 8 10 8 5 5 5 5 2 2 2 2 3 2 2 1 3 3 13 25 25 21 15 13 11 9 7 8 7 5 4 4 3 0 4 7 10 13 16
5 5 11 10 11 8 6 7 6 6 4 2 2 2 4 2 2 2 2 2 3 8 11 16 23 24 18 13 13 11 8 9 8 7 5 4 3 2 3 4 9 12 13 17
Wind_Direction
215 216 209 214 210 196 191 189 211 169 184 178 204 212 209 221 194 202 220 277 204 229 194 207 220 217 210 175 187 209 188 258 216 228 84 303 297 261 214 231 220 228 311 296
215 217 209 213 210 196 178 198 182 172 176 197 195 210 214 212 215 198 204 203 207 213 198 204 225 220 77 176 211 231 185 228 226 226 207 214 234 226 238 234 321 247 229 274
210 216 211 212 211 194 178 192 174 166 196 210 200 201 210 202 219 220 197 202 176 190 191 208 191 191 154 183 200 40 114 244 233 241 340 5 205 236 219 213 222 247 244 270
210 212 212 210 210 190 180 213 200 180 182 199 200 202 198 202 185 216 200 193 205 196 194 190 204 176 157 176 172 192 240 237 235 261 297 294 288 263 228 232 237 252 264 269
209 209 213 209 210 183 196 214 198 180 172 193 199 199 212 205 188 183 198 213 205 206 209 209 203 190 190 184 178 199 195 242 269 259 240 269 273 262 257 242 249 256 263 272
211 211 214 200 203 185 195 216 208 177 170 190 195 198 207 200 180 188 244 208 178 197 94 66 43 74 94 132 180 196 193 209 197 247 341 308 287 242 245 250 248 256 268 280
210 208 213 205 191 187 185 208 183 172 175 186 189 192 204 207 176 168 165 173 177 116 124 103 88 88 92 103 76 179 187 204 145 222 242 281 289 28 323 287 278 267 272 280
209 219 202 195 193 189 193 211 192 178 162 182 191 189 203 198 153 148 139 75 123 146 150 125 125 107 76 137 87 142 248 155 152 181 222 293 282 173 286 240 296 26 344 350
215 207 209 196 189 185 194 191 211 163 154 196 185 191 193 166 152 140 96 121 131 144 138 144 198 197 217 163 153 127 121 239 223 163 217 234 75 88 114 226 254 44 5 348
200 202 191 179 184 189 199 200 173 171 169 172 177 194 192 192 171 140 136 162 158 186 119 142 185 200 321 178 196 178 140 228 213 203 252 284 56 141 203 242 42 356 347 333
196 182 178 180 180 184 193 226 174 169 136 131 179 187 191 200 191 155 138 141 161 165 161 175 179 158 198 213 205 176 175 170 190 186 208 265 136 140 279 16 320 326 317 315
168 172 174 176 180 183 189 198 166 159 150 126 147 163 173 183 209 194 173 213 158 173 157 177 117 137 66 318 229 179 216 218 235 206 217 103 182 331 313 306 309 311 309 306
167 169 171 173 181 180 170 162 147 164 114 118 142 153 184 189 181 163 165 198 165 174 166 148 129 151 172 163 232 168 222 178 227 308 168 262 285 290 290 310 310 309 307 306
168 172 174 176 179 177 137 166 151 164 133 114 121 171 167 191 191 186 172 167 170 161 140 123 136 133 214 188 295 221 358 160 231 243 285 297 255 356 356 318 314 313 313 313
171 172 172 174 176 178 129 153 148 146 142 129 136 130 67 137 165 172 183 170 159 153 133 119 150 125 131 103 120 219 198 299 207 236 44 344 323 335 344 337 355 353 351 353
171 173 173 174 175 168 145 153 136 159 114 118 143 110 85 98 114 120 129 141 152 159 130 124 117 142 181 155 195 96 94 45 348 305 323 314 334 51 33 48 45 46 50 54
166 168 170 172 171 172 233 181 158 167 219 125 121 126 127 126 125 104 120 114 105 142 123 89 138 132 170 164 208 129 53 346 320 348 332 160 39 41 56 71 65 65 67 69
155 159 162 167 174 177 113 135 128 168 185 182 127 104 131 95 104 93 65 108 122 51 97 103 114 109 156 194 102 82 27 86 64 41 53 85 97 86 79 84 85 84 88 89
140 145 150 156 167 171 126 126 166 231 202 232 104 141 156 118 88 97 67 68 78 87 95 127 144 156 175 86 111 79 47 40 82 88 87 92 96 95 94 99 98 93 91 84
130 129 135 140 163 130 114 128 168 227 0 56 86 89 111 120 121 83 91 44 137 142 112 129 59 95 106 110 105 83 44 37 146 114 105 110 107 109 106 100 92 84 79 66
132 124 90 131 128 112 119 127 352 155 78 41 74 73 120 59 109 114 39 113 134 157 142 206 161 175 156 153 127 100 90 100 111 121 115 114 115 114 109 98 70 45 29 13
113 121 126 133 135 117 75 23 337 34 91 74 83 80 92 95 98 108 144 112 156 151 146 186 202 132 148 142 128 117 111 109 111 115 117 116 110 100 92 79 60 45 32 15
107 89 69 27 17 81 137 166 117 105 62 103 132 91 83 98 88 83 117 158 134 151 149 214 65 147 152 145 138 131 126 123 122 119 116 114 104 99 91 70 44 45 28 10
62 51 56 16 55 57 22 3 41 75 108 106 104 81 79 99 85 31 112 57 182 193 220 187 143 160 154 150 148 142 136 133 127 124 118 114 100 85 73 68 56 36 14 354
60 37 47 53 59 58 54 70 78 79 99 99 89 77 80 53 106 44 117 147 219 229 37 110 150 157 151 149 151 148 148 138 121 125 128 117 111 98 83 50 8 347 335 330
62 48 71 85 78 47 47 60 59 71 81 74 62 89 108 81 92 153 179 215 191 99 96 144 159 163 163 155 155 154 152 147 136 127 128 127 139 141 94 319 319 331 333 338
59 53 59 74 73 68 56 57 46 61 45 47 19 52 45 131 106 109 360 42 58 117 127 158 170 166 157 157 165 164 151 139 137 133 144 167 186 241 288 330 330 339 332 330